Escatawpa, MS

1:54 PM CDT on July 28, 2016 (GMT -0500)
Lott International

Weather History for KPQL - March, 2013

Change the Weather History Date:

Monday, March 4, 2013

  Actual Average Record
Temperature  
Mean Temperature 49 °F -  
Max Temperature 66 °F 67 °F 79 °F (2015)
Min Temperature 32 °F 48 °F 26 °F (2002)
Degree Days  
Heating Degree Days 16    
Moisture  
Dew Point 42 °F    
Average Humidity 75    
Maximum Humidity 96    
Minimum Humidity 53    
Precipitation  
Precipitation 0.00 in - - ()
Sea Level Pressure  
Sea Level Pressure 30.11 in    
Wind  
Wind Speed 3 mph (SSE)    
Max Wind Speed 15 mph    
Max Gust Speed 20 mph    
Visibility 9 miles    
Events Rain    
Averages and records for this station are not official NWS values.
T = Trace of Precipitation, MM = Missing Value Source: NWS Daily Summary

Daily Weather History Graph

Daily Weather History Graph

Search for Another Location

Airport or City:

Trip Planner

Search our weather history database for the weather conditions in past years. The results will help you decide how hot, cold, wet, or windy it might be!

Date:

Astronomy

Mar. 04, 2013 Rise Set
Actual Time 6:16 AM CST 5:55 PM CST
Civil Twilight 5:52 AM CST 6:19 PM CST
Nautical Twilight 5:24 AM CST 6:47 PM CST
Astronomical Twilight 4:56 AM CST 7:15 PM CST
Moon 12:09 AM CST (3/4) 10:54 AM CST (3/4)
Length of Visible Light 12h 26m
Length of Day
11h 38m
Waning Gibbous, 52% of the Moon is Illuminated
Mar 4
Waning Gibbous
Mar 4
Last Quarter
Mar 11
New
Mar 19
First Quarter
Mar 27
Full

Hourly Weather History & Observations

Time (CST) Temp. Windchill Dew Point Humidity Pressure Visibility Wind Dir Wind Speed Gust Speed Precip Events Conditions
12:53 AM 35.1 °F - 32.0 °F 89% 30.16 in 10.0 mi Calm Calm - N/A   Clear
1:53 AM 34.0 °F - 32.0 °F 92% 30.16 in 8.0 mi Calm Calm - N/A   Clear
2:53 AM 34.0 °F - 32.0 °F 92% 30.14 in 10.0 mi Calm Calm - N/A   Clear
3:53 AM 34.0 °F - 32.0 °F 92% 30.15 in 2.0 mi Calm Calm - N/A   Clear
4:01 AM 33.8 °F - 32.0 °F 93% 30.14 in 1.2 mi Calm Calm - N/A   Clear
4:13 AM 33.8 °F - 32.0 °F 93% 30.14 in 3.0 mi Calm Calm - N/A   Clear
4:53 AM 33.1 °F - 30.9 °F 92% 30.15 in 10.0 mi Calm Calm - N/A   Clear
5:07 AM 33.8 °F - 30.2 °F 87% 30.14 in 2.0 mi Calm Calm - N/A   Clear
5:16 AM 33.8 °F - 30.2 °F 87% 30.15 in 10.0 mi Calm Calm - N/A   Clear
5:53 AM 33.1 °F - 30.9 °F 92% 30.15 in 9.0 mi Calm Calm - N/A   Clear
6:17 AM 33.8 °F - 30.2 °F 87% 30.15 in 2.5 mi Calm Calm - N/A   Clear
6:25 AM 32.0 °F - 30.2 °F 93% 30.15 in 7.0 mi Calm Calm - N/A   Clear
6:53 AM 34.0 °F - 33.1 °F 96% 30.16 in 10.0 mi Calm Calm - N/A   Clear
7:53 AM 46.0 °F 44.8 °F 42.1 °F 86% 30.17 in 10.0 mi SSE 3.5 mph - N/A   Clear
8:53 AM 57.0 °F - 44.1 °F 62% 30.17 in 10.0 mi South 6.9 mph - N/A   Clear
9:53 AM 60.1 °F - 44.1 °F 55% 30.17 in 10.0 mi South 10.4 mph 17.3 mph N/A   Clear
10:53 AM 62.1 °F - 45.0 °F 53% 30.17 in 10.0 mi South 8.1 mph 19.6 mph N/A   Clear
11:53 AM 62.1 °F - 46.9 °F 58% 30.15 in 10.0 mi SE 11.5 mph 17.3 mph 0.00 in   Mostly Cloudy
12:53 PM 62.1 °F - 46.9 °F 58% 30.12 in 10.0 mi SE 11.5 mph - 0.00 in Rain Light Rain
1:53 PM 63.0 °F - 48.9 °F 60% 30.09 in 10.0 mi SE 15.0 mph - 0.00 in   Overcast
2:53 PM 63.0 °F - 51.1 °F 65% 30.07 in 10.0 mi SE 11.5 mph - 0.00 in   Mostly Cloudy
3:00 PM 62.6 °F - 51.8 °F 68% 30.07 in 10.0 mi SE 10.4 mph - N/A   Mostly Cloudy
3:42 PM 66.2 °F - 51.8 °F 60% 30.06 in 10.0 mi South 9.2 mph 18.4 mph N/A   Mostly Cloudy
3:53 PM 64.9 °F - 51.1 °F 61% 30.06 in 10.0 mi South 10.4 mph - N/A   Scattered Clouds
4:53 PM 63.0 °F - 48.9 °F 60% 30.06 in 10.0 mi South 8.1 mph 18.4 mph N/A   Overcast
5:53 PM 62.1 °F - 48.0 °F 60% 30.05 in 10.0 mi South 9.2 mph - N/A   Overcast
6:53 PM 61.0 °F - 50.0 °F 67% 30.04 in 10.0 mi South 5.8 mph - N/A   Mostly Cloudy
7:53 PM 61.0 °F - 51.1 °F 70% 30.02 in 10.0 mi South 6.9 mph - N/A   Scattered Clouds
8:53 PM 62.1 °F - 52.0 °F 70% 30.03 in 10.0 mi South 9.2 mph - N/A   Overcast
9:53 PM 62.1 °F - 53.1 °F 72% 30.03 in 10.0 mi South 9.2 mph - N/A   Mostly Cloudy
10:53 PM 63.0 °F - 52.0 °F 67% 30.02 in 10.0 mi South 8.1 mph 17.3 mph N/A   Mostly Cloudy
11:53 PM 63.0 °F - 52.0 °F 67% 29.99 in 10.0 mi South 11.5 mph - N/A   Clear